Terug naar catalogus

ONEWEB-0656

ActiefCommunicatiePO
NORAD 55817·PAYLOAD·🇬🇧 United Kingdom

Gelanceerd Mar 9, 2023 vanaf Cape Canaveral Space Force Station

Loading…

Volgende Passages (komende 24 uur)

TLE

VersSource: CelesTrak SupGP

Epoch: Sep 14, 2026, 16:43 UTC

1 55817C 23029X   26257.69667083 -.00001147  00000+0 -28237-2 0  2574
2 55817  87.9147 256.5767 0002145 101.2984  10.5807 13.20771932    16

Volg ONEWEB-0656 in realtime met AllMySat

Download on the App Store